[[{"header":{"parameterUnit":"m.s-1","parameterCategory":1,"la1":30.2991,"la2":30.254,"lo1":-89.0895,"lo2":-89.0444,"dy":0.0017,"dx":0.0017,"nx":28,"ny":28,"refTime":"2024-05-22T21:00:00:Z","depth":0,"parameterNumber":2,"parameterNumberName":"U-component_of_WINDS"},"data":[0,0,0,0,0,0,0,0,0,0,0,0,0,0,0,0,0,0,0,0,0,0,0,0,0,0,0,0,0,0,0,0,0,0,0,0,0,0,0,0,0,0,0,0,0,0,0,0,0,0,0,0,0,0,0,0,0,0,0.406,0.4061,0,0.4129,0.413,0.4131,0.4136,0.4135,0.4134,0.4133,0.4209,0.4212,0.4214,0,0,0,0,0,0,0,0,0,0,0,0,0,0.3934,0.3936,0.406,0.4061,0.4061,0.4129,0.413,0.4131,0.4136,0.4135,0.4134,0.4133,0.4208,0.4211,0.4215,0,0,0,0,0,0,0,0,0,0,0,0,0,0.3995,0.3937,0.406,0.4072,0.4074,0.4129,0.413,0.4131,0.4136,0.4135,0.4134,0.4133,0.4207,0.4211,0.4215,0.4264,0,0,0.4228,0.4229,0,0,0,0,0,0,0,0,0.3991,0.3999,0.4069,0.4071,0.4073,0.4123,0.4114,0.4176,0.4136,0.4113,0.4133,0.4132,0.4181,0.4188,0.4203,0.4268,0.4271,0.4228,0.4231,0.4232,0.4233,0,0,0,0,0,0,0,0.3987,0.3996,0.4087,0.407,0.4073,0.4075,0.4082,0.4125,0.4153,0.4115,0.4115,0.4123,0.4182,0.4199,0.4205,0.4272,0.4228,0.4232,0.4234,0.4236,0.4379,0.438,0,0,0,0,0,0,0.398,0.3993,0.4085,0.409,0.4028,0.4078,0.4086,0.4108,0.4152,0.4158,0.4124,0.4123,0.4193,0.42,0.4208,0.4267,0.4232,0.4236,0.4238,0.4377,0.4379,0.4381,0,0,0,0,0,0,0.3977,0.3988,0.4082,0.4041,0.4053,0.4082,0.4106,0.411,0.4127,0.4159,0.4165,0.4136,0.4192,0.4202,0.4249,0.427,0.4238,0.4242,0.4376,0.4378,0.438,0.4387,0,0,0,0,0,0,0.3974,0.3987,0.4006,0.4042,0.4056,0.4122,0.4107,0.4112,0.4134,0.4133,0.4172,0.4178,0.4192,0.4243,0.4254,0.4275,0.4245,0.4374,0.4377,0.4379,0.4385,0.4389,0.4393,0,0,0,0,0,0.3969,0.4006,0.4006,0.4018,0.4079,0.4123,0.4131,0.4146,0.4135,0.4154,0.4175,0.4176,0.4266,0.4248,0.426,0.4283,0.4373,0.4376,0.4379,0.4384,0.4388,0.4392,0,0,0,0,0,0,0.3974,0.4011,0.4012,0.4061,0.4089,0.4124,0.4148,0.4151,0.4183,0.4181,0.4199,0.4208,0.4255,0.4274,0.4253,0.4332,0.4319,0.4324,0.4318,0.4323,0.4326,0.4321,0.4248,0,0,0,0,0,0.398,0.4011,0.4043,0.4084,0.4097,0.412,0.414,0.4149,0.4179,0.4191,0.4215,0.4245,0.428,0.4302,0.4336,0.4388,0.4396,0.4409,0.4413,0.4416,0.442,0.4448,0.4454,0.439,0.439,0.439,0,0,0.3994,0.4018,0.4038,0.4085,0.4107,0.414,0.413,0.4166,0.4191,0.4197,0.4242,0.4261,0.4296,0.4345,0.4368,0.4362,0.444,0.442,0.4422,0.4425,0.4452,0.4458,0.4463,0.4392,0.4392,0.4392,0,0,0.4037,0.4058,0.4094,0.4116,0.4149,0.4164,0.4172,0.4207,0.4219,0.4264,0.4269,0.4299,0.4359,0.4383,0.4403,0.4453,0.4455,0.4464,0.4483,0.451,0.4515,0.4519,0.4537,0.4543,0.4468,0.4468,0.4468,0,0.4051,0.4099,0.4112,0.4147,0.4168,0.4173,0.4209,0.423,0.4273,0.4288,0.428,0.4354,0.4378,0.4432,0.4444,0.4461,0.4471,0.4459,0.4513,0.4517,0.4522,0.4539,0.4545,0.4469,0.4469,0.4469,0.4469,0,0.4114,0.4148,0.4173,0.4212,0.4236,0.4272,0.429,0.4313,0.4319,0.4335,0.4381,0.4409,0.4448,0.4462,0.447,0.4518,0.4513,0.4509,0.4495,0.4528,0.4544,0.4551,0.447,0.447,0.4469,0.4469,0,0,0.4163,0.4207,0.4216,0.4233,0.427,0.4296,0.4332,0.4369,0.4387,0.4417,0.4447,0.4497,0.4493,0.4515,0.4526,0.4549,0.4586,0.4542,0.4543,0.4549,0.464,0.4642,0.4649,0.4587,0.4589,0.459,0.4637,0,0.4209,0.4271,0.4283,0.4337,0.4369,0.4373,0.4404,0.443,0.4445,0.4475,0.4492,0.4527,0.4519,0.4533,0.4556,0.4576,0.4604,0.4573,0.4617,0.4618,0.4607,0.4658,0.4661,0.4704,0.4643,0.4644,0.4645,0,0.4271,0.43,0.4357,0.4387,0.4401,0.4428,0.4462,0.449,0.452,0.4529,0.4553,0.456,0.4598,0.4583,0.4635,0.4614,0.4632,0.4645,0.4647,0.4651,0.4633,0.4664,0.4718,0.4724,0.4655,0.4654,0.4653,0,0.43,0.4353,0.4393,0.4408,0.4445,0.4464,0.4481,0.4509,0.453,0.456,0.4573,0.4608,0.4627,0.4654,0.467,0.4657,0.4721,0.4707,0.473,0.473,0.4744,0.4743,0.4802,0.4756,0.4756,0.4756,0.4756,0,0.435,0.4385,0.4407,0.4432,0.447,0.4484,0.4522,0.4539,0.4563,0.4592,0.4599,0.4626,0.4645,0.4676,0.4689,0.473,0.4739,0.4748,0.4751,0.4747,0.4746,0.4759,0.4757,0.4758,0.4757,0.4757,0.4757,0,0.4389,0.4405,0.4449,0.448,0.4488,0.4515,0.4542,0.4567,0.4581,0.4618,0.4627,0.4651,0.4686,0.4705,0.475,0.4759,0.4805,0.4806,0.4794,0.4795,0.4817,0.4815,0.4887,0.4897,0.4845,0.4845,0.4846,0,0.442,0.4446,0.4479,0.4498,0.4514,0.4545,0.4565,0.4579,0.4601,0.4635,0.4656,0.4691,0.472,0.4777,0.4799,0.4833,0.4835,0.4858,0.484,0.4835,0.4835,0.4833,0.4835,0.4861,0.4862,0.4862,0.4862,0,0.4473,0.4479,0.4508,0.4539,0.4562,0.4588,0.4613,0.4629,0.4647,0.4671,0.4706,0.4728,0.4773,0.4808,0.4844,0.4862,0.4865,0.4867,0.4875,0.4871,0.4863,0.4867,0.4802,0.4866,0.4866,0.4865,0.4865,0.4865,0.4509,0.4532,0.4558,0.4589,0.4609,0.4632,0.4656,0.4673,0.4702,0.4738,0.4745,0.4783,0.4811,0.4858,0.4877,0.4907,0.4903,0.4913,0.4916,0.4918,0.4919,0.4858,0.4914,0.4914,0.4914,0.4914,0.4914,0,0.4561,0.4578,0.4606,0.464,0.4665,0.4664,0.4692,0.4713,0.4745,0.477,0.4798,0.4838,0.4871,0.4895,0.493,0.4949,0.4951,0.4957,0.4956,0.496,0.4921,0.4911,0.4955,0.4955,0.4955,0.4955,0.4955,0.4955,0.4592,0.463,0.4639,0.4688,0.4704,0.4739,0.4755,0.4776,0.4796,0.484,0.4867,0.4882,0.4907,0.4943,0.4973,0.498,0.4992,0.4998,0.5004,0.4967,0.4963,0.4959,0.495,0.5001,0.5001,0.5041,0.5041,0.5041]},{"header":{"parameterUnit":"m.s-1","parameterCategory":1,"la1":30.2991,"la2":30.254,"lo1":-89.0895,"lo2":-89.0444,"dy":0.0017,"dx":0.0017,"nx":28,"ny":28,"refTime":"2024-05-22T21:00:00:Z","depth":0,"parameterNumber":3,"parameterNumberName":"V-component_of_WINDS"},"data":[0,0,0,0,0,0,0,0,0,0,0,0,0,0,0,0,0,0,0,0,0,0,0,0,0,0,0,0,0,0,0,0,0,0,0,0,0,0,0,0,0,0,0,0,0,0,0,0,0,0,0,0,0,0,0,0,0,0,3.39,3.39,0,3.3915,3.3915,3.3915,3.3866,3.3865,3.3863,3.3862,3.3875,3.3877,3.3878,0,0,0,0,0,0,0,0,0,0,0,0,0,3.3827,3.3828,3.39,3.39,3.39,3.3915,3.3915,3.3915,3.3867,3.3865,3.3863,3.3861,3.3874,3.3876,3.3878,0,0,0,0,0,0,0,0,0,0,0,0,0,3.3852,3.3829,3.39,3.3878,3.3876,3.3915,3.3915,3.3915,3.3867,3.3865,3.3862,3.386,3.3874,3.3876,3.3879,3.3939,0,0,3.3887,3.3888,0,0,0,0,0,0,0,0,3.385,3.3854,3.3881,3.3879,3.3877,3.3886,3.3894,3.3923,3.3867,3.387,3.3862,3.3859,3.388,3.3882,3.389,3.3939,3.394,3.3887,3.3888,3.3889,3.389,0,0,0,0,0,0,0,3.3849,3.3854,3.3906,3.3881,3.3879,3.3866,3.3867,3.3899,3.3887,3.387,3.3866,3.3869,3.3879,3.3887,3.389,3.394,3.3887,3.3889,3.3891,3.3892,3.4038,3.404,0,0,0,0,0,0,3.385,3.3852,3.3905,3.3906,3.3858,3.3869,3.3871,3.3886,3.3887,3.3885,3.3871,3.3867,3.3884,3.3887,3.389,3.3959,3.3889,3.3892,3.3893,3.4036,3.4039,3.4041,0,0,0,0,0,0,3.3849,3.3855,3.3905,3.3878,3.3884,3.3873,3.389,3.3887,3.3896,3.3888,3.3885,3.3882,3.3882,3.3886,3.3927,3.3959,3.3893,3.3895,3.4033,3.4037,3.404,3.4099,0,0,0,0,0,0,3.3847,3.3855,3.3879,3.3879,3.3885,3.3942,3.3892,3.3889,3.39,3.3895,3.3897,3.3895,3.3881,3.3923,3.3929,3.3962,3.3897,3.403,3.4035,3.4039,3.4095,3.4105,3.4113,0,0,0,0,0,3.3845,3.3894,3.388,3.3887,3.3914,3.3944,3.3947,3.393,3.3903,3.3926,3.3921,3.3895,3.3955,3.3928,3.3934,3.3968,3.4028,3.4033,3.4038,3.409,3.4103,3.4113,0,0,0,0,0,0,3.3897,3.3894,3.3878,3.393,3.3938,3.3936,3.3964,3.3944,3.3959,3.3953,3.3931,3.3932,3.3976,3.3976,3.3946,3.4025,3.3986,3.3993,3.4024,3.4035,3.4045,3.4043,3.3899,0,0,0,0,0,3.3915,3.394,3.3936,3.3982,3.3987,3.3975,3.3987,3.3974,3.398,3.3983,3.3981,3.3988,3.4008,3.4022,3.404,3.4094,3.4094,3.412,3.413,3.4138,3.4144,3.4172,3.4183,3.4058,3.4058,3.4058,0,0,3.3952,3.3953,3.397,3.3993,3.3997,3.4023,3.3978,3.4007,3.4026,3.3987,3.4025,3.4024,3.403,3.4078,3.4099,3.4079,3.4178,3.4144,3.4151,3.4152,3.4178,3.419,3.4201,3.4062,3.4061,3.4061,0,0,3.4032,3.4036,3.4074,3.408,3.4087,3.4079,3.4088,3.4089,3.4087,3.4125,3.4097,3.4118,3.4153,3.4159,3.4166,3.4248,3.4225,3.4254,3.4303,3.433,3.434,3.4349,3.4377,3.4388,3.426,3.426,3.426,0,3.4076,3.4115,3.4097,3.4128,3.4138,3.4105,3.4143,3.4149,3.4162,3.4169,3.4147,3.419,3.4192,3.424,3.426,3.4267,3.4277,3.4254,3.434,3.4349,3.4357,3.4383,3.4394,3.4264,3.4263,3.4263,3.4263,0,3.4169,3.4196,3.4226,3.424,3.4253,3.4288,3.4274,3.429,3.4275,3.4268,3.4307,3.4308,3.4325,3.4336,3.4321,3.4382,3.4369,3.4344,3.4305,3.4372,3.4397,3.4407,3.4269,3.4268,3.4267,3.4266,0,0,3.4283,3.4286,3.4297,3.4303,3.4308,3.4328,3.4361,3.4378,3.4392,3.4402,3.4428,3.4458,3.4435,3.4444,3.4429,3.4454,3.4517,3.4425,3.4425,3.4442,3.4583,3.4602,3.4614,3.4502,3.4504,3.4506,3.4583,0,3.4361,3.4418,3.4402,3.4458,3.4482,3.4451,3.4479,3.4485,3.448,3.4499,3.4493,3.4515,3.4483,3.4488,3.4511,3.4505,3.4545,3.4499,3.4526,3.4527,3.4525,3.4627,3.4647,3.4719,3.4592,3.4594,3.4595,0,3.446,3.4474,3.4533,3.4534,3.4544,3.4569,3.4584,3.4603,3.4609,3.4603,3.4613,3.4593,3.4624,3.4585,3.4627,3.4596,3.4606,3.4605,3.4607,3.4608,3.4565,3.4631,3.4742,3.4753,3.461,3.4609,3.4608,0,3.4537,3.457,3.461,3.4615,3.4618,3.4636,3.4638,3.4641,3.4653,3.4665,3.4672,3.4688,3.4697,3.4709,3.4694,3.4667,3.4738,3.4698,3.4734,3.4734,3.475,3.4749,3.4864,3.4757,3.4757,3.4757,3.4757,0,3.4625,3.4663,3.4644,3.4668,3.4708,3.4689,3.473,3.4727,3.4731,3.4753,3.4727,3.4749,3.4728,3.4747,3.4736,3.4772,3.4776,3.4772,3.4768,3.4774,3.4775,3.478,3.4774,3.476,3.4759,3.4759,3.4758,0,3.4718,3.4707,3.4747,3.4746,3.4747,3.4776,3.4775,3.4797,3.479,3.4818,3.4824,3.4813,3.4834,3.4821,3.4843,3.4835,3.4882,3.4872,3.488,3.4877,3.4914,3.491,3.5036,3.5051,3.4935,3.4936,3.4937,0,3.4775,3.4803,3.4804,3.4818,3.4822,3.4844,3.4855,3.4837,3.485,3.4859,3.4879,3.4899,3.4913,3.4949,3.4942,3.4958,3.4948,3.4991,3.495,3.4955,3.4948,3.4946,3.4949,3.4999,3.5,3.5001,3.5002,0,3.4877,3.487,3.4889,3.4905,3.4919,3.4931,3.4941,3.4953,3.4935,3.4951,3.4973,3.4984,3.5006,3.5025,3.5039,3.504,3.5018,3.5015,3.5024,3.503,3.5034,3.5032,3.4902,3.5012,3.5011,3.501,3.501,3.501,3.4953,3.4976,3.4981,3.5002,3.5007,3.5017,3.5037,3.5032,3.5051,3.5068,3.5056,3.5082,3.5086,3.5102,3.5105,3.5125,3.5107,3.5121,3.5124,3.5127,3.5132,3.5031,3.5127,3.5127,3.5127,3.5126,3.5126,0,3.5054,3.5055,3.5075,3.5089,3.5105,3.5084,3.5093,3.5108,3.5131,3.5137,3.5152,3.5177,3.5195,3.519,3.5206,3.5223,3.5213,3.5228,3.5226,3.5227,3.5147,3.5137,3.5235,3.5235,3.5235,3.5235,3.5235,3.5235,3.5108,3.5146,3.514,3.5179,3.518,3.5206,3.5213,3.5221,3.5225,3.5255,3.527,3.5267,3.5268,3.5284,3.53,3.5298,3.5305,3.5323,3.5317,3.5243,3.5232,3.5222,3.5213,3.5325,3.5325,3.5395,3.5396,3.5396]}]]